Location: B�renbach
(48.4766°N, 8.1240°E)
Time: 12:32:44
(UTC+00:00)

Daily predictions for brighter satellites

Satellite Brightness Start Highest point End
(mag) Time Altitude Azimuth Time Altitude Azimuth Time Altitude Azimuth
Cosmos 1980 Rocket 2.3 19:38:20 10° NNW 19:43:59 84° WSW 19:49:38 10° SSE
Cosmos 2369 4.2 19:38:41 10° NNW 19:44:16 63° WSW 19:49:50 10° SSE
Cosmos 2058 3.3 19:41:23 10° SSW 19:45:33 72° W 19:49:46 10° N
MetOp-B 4.5 19:41:26 10° SE 19:46:35 51° ENE 19:51:47 10° N
USA 234 4.4 19:40:59 10° ENE 19:47:04 42° N 19:53:10 10° WNW
Cosmos 2221 2.9 19:44:53 10° NNW 19:49:11 69° W 19:53:29 10° S
ERBS 4.4 19:47:51 10° W 19:50:14 19° SW 19:52:35 10° S
RESURS DK-1 2.3 19:46:54 10° SSW 19:51:02 80° ESE 19:55:13 10° NNE
USA 245 4.4 19:48:41 10° SE 19:53:20 38° ENE 19:57:10 10° N
COSMOS 2406 4.0 19:48:50 10° SW 19:54:27 60° WNW 20:00:08 10° NNE
Cosmos 2322 Rocket 3.2 19:49:28 10° NNW 19:54:34 33° NE 19:59:37 10° ESE
BREEZE-M DEB (TANK) 3.6 19:51:14 10° SSW 19:54:39 44° SE 20:05:08 10° ENE
Cosmos 304 Rocket 4.1 19:54:34 10° NNW 19:59:16 52° ENE 20:03:55 10° SE
BREEZE-M DEB (TANK) 3.5 19:57:04 10° WNW 20:00:05 67° SSW 20:08:43 10° ESE
Cosmos 1933 3.9 19:56:48 10° N 20:00:41 42° ENE 20:04:31 10° SSE
Cosmos 1538 Rocket 4.0 19:56:46 10° S 20:01:53 60° ESE 20:06:59 10° NNE
Resurs 01 Rocket 1.7 19:59:49 10° SSE 20:04:16 82° WSW 20:08:45 10° NNW
ERS-2 2.2 20:01:35 10° NNE 20:05:15 85° WNW 20:08:53 10° SSW
Cosmos 2151 3.2 20:02:14 10° S 20:06:20 50° E 20:10:29 10° NNE
Cosmos 2098 Rocket 2.3 20:04:29 10° S 20:07:35 84° E 20:11:18 10° N
Cosmos 44 Rocket 4.3 20:02:45 10° SW 20:07:53 57° NW 20:13:04 10° NNE
Gbstr 26 Del rocket 2.7 20:05:25 10° WNW 20:09:09 85° NNE 20:12:56 11° ESE
Meteor 2-3 Rocket 4.0 20:06:08 10° SSE 20:11:32 48° E 20:17:01 10° NNE
CARTOSAT-1 4.1 20:09:30 12° SE 20:13:19 44° ENE 20:17:27 10° N
Cosmos 2219 Rocket 4.3 20:12:01 10° N 20:15:33 17° NE 20:19:05 10° ENE
Ariane Rocket 4.1 20:13:57 10° S 20:18:46 44° W 20:23:38 10° NNW
SL-16 R/B 2.4 20:17:41 10° NNW 20:23:20 63° ENE 20:28:03 15° SE
Cosmos 1782 3.2 20:23:14 10° N 20:27:10 48° ENE 20:30:03 17° SSE
Cosmos 371 Rocket 4.0 20:23:14 10° NNW 20:27:54 52° WSW 20:32:34 10° S
ARIANE 5 R/B 2.9 20:26:51 15° SE 20:30:25 55° ENE 20:34:47 10° N
Cosmos 1271 Rocket 2.7 20:29:45 10° N 20:33:46 79° ENE 20:36:56 16° SSE
SPOT 1/Viking Rocket 3.8 20:31:26 10° S 20:36:37 73° WSW 20:41:51 10° NNW
USA 276 2.2 20:33:40 10° WNW 20:36:48 61° SSW 20:38:32 23° SE
BREEZE-M DEB (TANK) 2.9 20:34:53 10° W 20:37:54 50° SSW 20:43:14 16° SE
Cosmos 2195 Rocket 4.4 20:32:34 10° S 20:38:40 77° E 20:44:47 10° NNE
Cosmos 1766 Rocket 4.0 20:37:41 17° SSE 20:40:46 42° E 20:44:55 10° NNE
Cosmos 1151 Rocket 3.3 20:36:29 10° N 20:40:46 55° ENE 20:43:40 20° SSE
ATLAS 5 CENTAUR R/B 4.0 20:38:01 10° NNW 20:42:02 23° NNE 20:46:36 10° ENE
Cosmos 1328 Rocket 4.0 20:40:41 10° N 20:45:00 47° ENE 20:47:39 21° SE
ATLAS 2AS CENTAUR R/B 3.9 20:38:05 10° WSW 20:45:46 52° NW 20:53:14 10° NE
Cosmos 923 Rocket 4.0 20:42:58 10° S 20:48:15 67° ESE 20:53:35 10° NNE
ATLAS 3B R/B 3.6 20:43:46 10° NW 20:50:26 44° WSW 20:56:42 13° S
Terra 2.1 20:47:56 20° SE 20:51:00 53° ENE 20:55:39 10° N
SPOT 5 2.6 20:50:48 21° SSE 20:53:39 75° ENE 20:58:04 10° N
USA 267 4.1 20:48:37 10° ENE 20:53:59 26° SE 20:59:01 11° S
Cosmos 1092 Rocket 4.2 20:50:31 10° SSW 20:56:46 77° W 21:03:08 10° N
Cosmos 2082 Rocket 3.7 20:51:41 10° WSW 20:56:57 39° NW 21:02:16 10° NNE
Cosmos 2056 Rocket 3.8 20:53:34 10° NNW 20:58:54 60° ENE 21:02:09 23° SE
NOSS 2-1 (C) 3.8 21:00:51 28° ESE 21:00:51 28° ESE 21:03:31 10° ENE
BREEZE-M DEB (TANK) 1.5 21:00:30 10° W 21:02:43 77° N 21:03:12 42° ENE
ERS-1 Rocket 3.0 21:00:35 20° SSE 21:04:05 87° WSW 21:09:09 10° NNW
Cosmos 2360 Rocket 2.4 21:01:06 10° NNW 21:06:43 63° ENE 21:10:08 24° SE
SL-27 R/B 3.3 21:06:23 30° ESE 21:06:47 30° ESE 21:10:00 10° NE
NOSS 2-1 (D) 3.4 21:08:18 34° ESE 21:08:18 34° ESE 21:11:20 10° NE
Cosmos 2026 Rocket 4.2 21:03:25 10° SSW 21:09:45 76° W 21:16:04 10° N
GP-B 3.6 21:08:06 10° N 21:12:29 57° W 21:16:13 14° SSW
ISS -1.9 21:13:01 10° W 21:15:28 19° SW 21:15:56 18° SSW
Cosmos 2333 Rocket 3.0 21:11:51 10° NNW 21:17:13 41° NE 21:20:38 20° ESE
Spot 2 Rocket 4.3 21:14:48 15° S 21:18:48 47° W 21:23:45 10° NNW
Meteor 1-10 Rocket 4.3 21:14:21 10° N 21:19:54 65° ENE 21:22:51 28° SSE
Cosmos 1371 Rocket 4.0 21:15:01 10° NNW 21:20:26 86° WSW 21:23:22 28° SSE
Cosmos 1812 2.7 21:17:34 10° N 21:21:27 83° W 21:23:04 34° S
Cosmos 2112 Rocket 3.9 21:17:49 11° SSW 21:22:53 84° ESE 21:28:11 10° NNE
Cosmos 1680 Rocket 3.5 21:18:05 10° SSW 21:23:23 84° WNW 21:28:40 10° NNE
Cosmos 1500 Rocket 4.4 21:22:35 29° ESE 21:23:41 34° E 21:27:41 10° NNE
Cosmos 220 Rocket 4.2 21:19:31 10° NNW 21:23:50 68° WSW 21:25:50 31° S
Cosmos 2322 4.4 21:22:03 10° NNW 21:27:35 46° NE 21:30:49 23° ESE
Okean 3 Rocket 3.9 21:24:58 18° SSW 21:28:17 68° W 21:32:49 10° N
USA 234 3.8 21:23:05 10° E 21:29:28 58° NNE 21:35:52 10° NW
Cosmos 292 Rocket 3.8 21:26:54 10° NNW 21:31:41 68° ENE 21:33:40 34° SE
Cosmos 2237 Rocket 4.2 21:33:18 10° N 21:37:28 20° NE 21:41:38 10° E
Meteor 2-16 Rocket 4.4 21:35:25 27° S 21:38:48 69° E 21:44:52 10° NNE
Cosmos 2322 Rocket 2.7 21:33:24 10° NW 21:38:50 49° WSW 21:41:46 25° S
Cosmos 1408 Rocket 3.5 21:40:12 33° S 21:42:07 89° W 21:46:30 10° N
Cosmos 1743 Rocket 3.8 21:42:22 40° SE 21:43:31 52° E 21:47:50 10° NNE
Cosmos 2285 Rocket 4.4 21:38:16 10° NNW 21:44:26 52° ENE 21:47:42 27° ESE
Cosmos 2315 Rocket 4.2 21:43:05 10° N 21:49:20 60° ENE 21:52:17 32° SE
Cosmos 1553 Rocket 4.5 21:45:51 10° NNW 21:51:43 53° W 21:55:36 21° SSW
Sich 1 4.1 21:51:50 29° E 21:52:14 29° E 21:56:01 10° NNE
Cosmos 2084 3.3 21:48:52 15° SW 21:52:15 83° NW 21:56:28 10° NE
Gbstr 26 Del rocket 4.2 21:52:28 10° W 21:55:26 24° SW 21:55:26 24° SW
Cosmos 2266 Rocket 3.9 21:53:29 30° S 21:56:43 81° E 22:02:59 10° N
Cosmos 1862 4.1 21:57:03 25° SW 21:59:00 47° WNW 22:02:52 10° N
Cosmos 2219 Rocket 2.3 21:55:03 10° NNW 22:00:39 67° ENE 22:02:58 35° SE
Cosmos 2228 Rocket 3.0 22:00:40 10° N 22:05:05 72° E 22:06:05 51° SE
Cosmos 1515 Rocket 4.2 22:00:53 10° NNW 22:05:10 47° W 22:06:43 32° SW
H-2A R/B 3.8 22:01:21 10° N 22:05:32 64° WNW 22:07:14 33° SW
NOSS 2-1 (E) 3.1 22:05:22 40° WSW 22:06:21 66° NW 22:09:51 10° NE
SL-16 R/B 3.8 22:02:33 10° NW 22:06:59 24° WSW 22:09:55 16° SW
NOSS 3-1 (C) 4.0 22:02:27 10° NW 22:09:53 83° SW 22:14:30 31° SSE
Cosmos 2333 4.1 22:04:36 10° NNW 22:10:14 78° WSW 22:12:13 41° SSE
COSMOS 2455 2.9 22:09:10 37° S 22:11:20 57° ESE 22:17:13 10° NE
Cosmos 1420 Rocket 4.4 22:06:40 10° NNW 22:11:51 54° WSW 22:13:43 36° SSW
Cosmos 883 Rocket 4.5 22:07:56 10° N 22:14:11 80° W 22:16:57 36° S
COSMOS 2428 2.8 22:09:40 10° NNW 22:15:24 71° ENE 22:17:35 38° SE
Cosmos 1655 Rocket 4.3 22:12:44 25° SSW 22:16:40 68° WNW 22:23:04 10° N
Cosmos 1602 4.5 22:17:48 38° E 22:17:48 38° E 22:21:13 10° NNE
Cosmos 1515 4.0 22:16:59 10° N 22:20:41 51° ENE 22:20:48 50° E
Spot 4 3.8 22:21:45 51° SSE 22:22:59 82° ENE 22:27:50 10° NNW
USA 229 DEB 3.9 22:16:49 10° NW 22:24:08 83° NE 22:28:16 31° SE
USA 229 3.9 22:16:55 10° NW 22:24:14 82° NE 22:28:23 31° SE
ATLAS 5 CENTAUR R/B 2.5 22:22:09 10° NW 22:27:33 66° NE 22:30:39 30° ESE
Terra 3.7 22:26:49 16° SW 22:29:03 21° W 22:32:41 10° NW
COSMOS 2487 2.6 22:31:49 66° NNE 22:31:49 66° NNE 22:34:49 10° NNE
Cosmos 1452 Rocket 3.5 22:26:12 10° NNW 22:31:27 70° WSW 22:32:49 48° S
Cosmos 1707 Rocket 3.6 22:27:23 10° N 22:31:43 62° ENE 22:32:18 55° ESE
ALOS 2 2.7 22:33:57 53° ESE 22:34:40 63° ENE 22:39:02 10° N
USA 267 3.1 22:31:04 10° NE 22:37:39 81° SE 22:44:12 10° SW
Meteor 1-27 Rocket 4.4 22:36:46 10° NNW 22:42:08 46° W 22:44:14 32° SW
Cosmos 1666 4.4 22:44:25 23° E 22:44:25 23° E 22:47:06 10° NE
NOSS 3-1 (A) 4.0 22:37:09 10° NW 22:44:36 82° SW 22:48:48 34° SSE
Cosmos 1805 Rocket 4.0 22:49:13 46° SW 22:50:12 58° WNW 22:54:35 10° N
Cosmos 2360 Rocket 3.7 22:45:52 10° NW 22:50:15 24° WSW 22:51:53 21° SW
Nadezhda 2 Rocket 4.5 22:49:10 43° S 22:51:28 86° E 22:57:55 10° N
Meteor 1-20 Rocket 4.2 22:54:51 44° SSW 22:56:43 76° WNW 23:02:26 10° N
Cosmos 1110 Rocket 4.0 22:52:10 10° NNW 22:57:31 79° WSW 22:58:40 55° S
Cosmos 1980 3.9 22:53:37 10° NNW 22:59:16 63° ENE 23:01:19 38° ESE
Cosmos 2333 Rocket 2.9 22:56:16 10° NW 23:01:28 38° WSW 23:02:38 35° SW
Cosmos 1331 Rocket 3.9 22:57:41 10° NNW 23:02:57 78° WSW 23:03:58 58° S
Cosmos 1244 Rocket 4.4 23:03:47 43° SSW 23:05:56 82° W 23:12:11 10° N
Nimbus 7 Rocket 4.4 23:06:21 10° NNE 23:12:23 69° ESE 23:14:02 48° SSE
USA 234 3.2 23:10:02 40° SSE 23:12:26 66° SW 23:18:59 10° WNW
Cosmos 1340 Rocket 4.0 23:13:35 30° E 23:13:35 30° E 23:16:42 10° NNE
NOSS 0 Rocket 3.9 23:07:57 10° NNW 23:14:12 77° WSW 23:16:01 48° S
Cosmos 2297 Rocket 2.6 23:17:11 42° SE 23:17:56 44° ESE 23:23:18 10° NE
Okean 1-7 3.9 23:14:22 10° N 23:18:21 37° ENE 23:18:54 35° E
Lacrosse 5 2.6 23:21:59 36° ESE 23:21:59 36° ESE 23:25:55 10° ENE
Cosmos 2237 Rocket 2.1 23:16:41 10° NNW 23:22:25 85° ENE 23:24:02 49° SSE
Cosmos 2084 Rocket 3.3 23:19:44 10° NW 23:23:57 87° NE 23:24:07 82° ESE
Cosmos 2242 Rocket 4.2 23:20:15 10° N 23:24:29 44° ENE 23:25:08 41° E
NOSS 2-2 (E) 4.4 23:19:55 10° NW 23:25:14 85° NE 23:28:32 33° SE
Meteor 1-18 Rocket 4.4 23:19:41 10° NNW 23:25:29 63° W 23:26:57 47° SSW
Cosmos 1500 3.5 23:26:57 60° WNW 23:26:57 60° WNW 23:30:41 10° N
Cosmos 1470 Rocket 3.3 23:29:03 79° SE 23:29:13 81° E 23:33:33 10° NNE
Cosmos 2227 Rocket 2.7 23:28:53 39° SE 23:29:39 41° ESE 23:34:56 10° NE
Sich 1 4.4 23:28:46 26° W 23:29:51 30° WNW 23:33:43 10° N
Okean 1 4.4 23:28:12 10° NNW 23:31:46 34° W 23:31:46 34° W
Cosmos 1633 Rocket 3.4 23:33:06 51° WSW 23:33:36 54° WNW 23:37:53 10° N
Cosmos 1933 Rocket 3.6 23:35:34 61° ESE 23:35:50 63° E 23:40:16 10° NNE
Cosmos 1666 Rocket 4.4 23:37:07 38° W 23:37:51 41° WNW 23:42:05 10° N
Meteor 1-11 Rocket 4.2 23:41:19 39° SE 23:42:37 46° E 23:47:52 10° NNE
Cosmos 2219 Rocket 3.6 23:39:54 10° NW 23:44:04 22° W 23:44:40 22° WSW
Cosmos 2263 Rocket 4.4 23:46:39 10° ESE 23:48:16 11° E 23:49:55 10° ENE
NOSS 2-2 (C) 4.3 23:44:12 10° NW 23:49:27 83° SW 23:52:23 36° SSE
SL-16 R/B 2.7 23:44:09 10° NNW 23:49:43 54° ENE 23:52:42 27° ESE
Cosmos 1992 Rocket 4.3 23:45:09 10° NNW 23:50:21 63° ENE 23:52:06 40° SE
Cosmos 1269 Rocket 3.9 23:50:05 57° SSW 23:51:12 89° E 23:56:31 10° NNE
PSLV R/B 3.7 23:46:44 10° NNE 23:51:32 83° ESE 23:52:12 66° S
Resurs 1-4 Rocket 4.0 23:49:44 10° NE 23:53:21 18° E 23:55:13 16° ESE
